When you browse on this site, cookies collect data to enhance your experience and personalize the content and advertising you see.
Visit our Privacy Policy to learn more. By continuing to use the site, you agree to this use of cookies and data.
  • In Hungary
  • List of Countries
  • For 7 days
  • Water Temperature
  • Weather Map
  • News
  • Weather Widgets
  • user-avatar
    Login

    Hourly Weather Namib-Naukluft Park

    Today, 7 December, Saturday

    Time Temperature Precipitation Wind Pressure Humidity
    00:00 +22°C° 0 mm 1 mps 701 mmHg 64%
    01:00 +20°C° 0 mm 0 mps 701 mmHg 59%
    02:00 +22°C° 0 mm 1 mps 701 mmHg 60%
    03:00 +22°C° 0 mm 1 mps 700 mmHg 60%
    04:00 +22°C° 0 mm 1 mps 700 mmHg 61%
    05:00 +22°C° 0 mm 1 mps 701 mmHg 61%
    06:00 +21°C° 0 mm 2 mps 701 mmHg 62%
    07:00 +21°C° 0 mm 2 mps 702 mmHg 66%
    08:00 +23°C° 0 mm 2 mps 702 mmHg 60%
    09:00 +25°C° 0 mm 3 mps 702 mmHg 54%
    10:00 +26°C° 0 mm 3 mps 702 mmHg 47%
    11:00 +27°C° 0 mm 4 mps 701 mmHg 44%
    12:00 +28°C° 0 mm 5 mps 701 mmHg 42%
    13:00 +29°C° 0 mm 7 mps 701 mmHg 39%
    14:00 +29°C° 0 mm 7 mps 700 mmHg 40%
    15:00 +28°C° 0 mm 7 mps 700 mmHg 42%
    16:00 +28°C° 0 mm 7 mps 700 mmHg 43%
    17:00 +26°C° 0 mm 7 mps 700 mmHg 51%
    18:00 +23°C° 0 mm 6 mps 700 mmHg 58%
    19:00 +21°C° 0 mm 5 mps 700 mmHg 65%
    20:00 +20°C° 0 mm 4 mps 701 mmHg 66%
    21:00 +20°C° 0 mm 3 mps 701 mmHg 66%
    22:00 +21°C° 0 mm 1 mps 701 mmHg 67%
    23:00 +20°C° 0 mm 1 mps 700 mmHg 67%

    Tomorrow, 8 December, Sunday

    Time Temperature Precipitation Wind Pressure Humidity
    00:00 +19°C° 0 mm 2 mps 700 mmHg 67%
    01:00 +19°C° 0 mm 2 mps 700 mmHg 67%
    02:00 +19°C° 0 mm 2 mps 700 mmHg 69%
    03:00 +19°C° 0 mm 2 mps 700 mmHg 70%
    04:00 +20°C° 0 mm 1 mps 700 mmHg 72%
    05:00 +19°C° 0 mm 2 mps 700 mmHg 72%
    06:00 +19°C° 0 mm 2 mps 701 mmHg 72%
    07:00 +19°C° 0 mm 2 mps 701 mmHg 72%
    08:00 +21°C° 0 mm 3 mps 701 mmHg 64%
    09:00 +23°C° 0 mm 4 mps 702 mmHg 55%
    10:00 +26°C° 0 mm 4 mps 702 mmHg 47%
    11:00 +27°C° 0 mm 5 mps 702 mmHg 45%
    12:00 +27°C° 0 mm 6 mps 701 mmHg 43%
    13:00 +28°C° 0 mm 7 mps 701 mmHg 41%
    14:00 +27°C° 0 mm 7 mps 701 mmHg 45%
    15:00 +26°C° 0 mm 7 mps 701 mmHg 49%
    16:00 +23°C° 0 mm 6 mps 700 mmHg 53%
    17:00 +22°C° 0 mm 5 mps 700 mmHg 58%
    18:00 +21°C° 0 mm 4 mps 701 mmHg 63%
    19:00 +19°C° 0 mm 3 mps 701 mmHg 68%
    20:00 +19°C° 0 mm 2 mps 701 mmHg 69%
    21:00 +19°C° 0 mm 2 mps 701 mmHg 70%
    22:00 +19°C° 0 mm 1 mps 702 mmHg 71%
    23:00 +19°C° 0 mm 1 mps 701 mmHg 75%

    Day after tomorrow, 9 December, Monday

    Time Temperature Precipitation Wind Pressure Humidity
    00:00 +17°C° 0 mm 2 mps 701 mmHg 79%
    01:00 +16°C° 0 mm 2 mps 701 mmHg 83%
    02:00 +16°C° 0 mm 2 mps 700 mmHg 86%
    03:00 +15°C° 0 mm 1 mps 700 mmHg 89%
    04:00 +15°C° 0 mm 1 mps 700 mmHg 92%
    05:00 +15°C° 0 mm 1 mps 701 mmHg 89%
    06:00 +16°C° 0 mm 1 mps 701 mmHg 86%
    07:00 +15°C° 0 mm 0 mps 701 mmHg 82%
    08:00 +20°C° 0 mm 1 mps 701 mmHg 71%
    09:00 +21°C° 0 mm 2 mps 702 mmHg 59%
    10:00 +25°C° 0 mm 2 mps 702 mmHg 47%
    11:00 +26°C° 0 mm 4 mps 701 mmHg 43%
    12:00 +28°C° 0 mm 5 mps 701 mmHg 38%
    13:00 +30°C° 0 mm 7 mps 701 mmHg 34%
    14:00 +29°C° 0 mm 7 mps 701 mmHg 37%
    15:00 +28°C° 0 mm 7 mps 701 mmHg 40%
    16:00 +27°C° 0 mm 8 mps 700 mmHg 43%
    17:00 +23°C° 0 mm 7 mps 701 mmHg 49%
    18:00 +21°C° 0 mm 6 mps 701 mmHg 56%
    19:00 +19°C° 0 mm 5 mps 701 mmHg 62%
    20:00 +18°C° 0 mm 4 mps 701 mmHg 65%
    21:00 +17°C° 0 mm 2 mps 702 mmHg 68%
    22:00 +18°C° 0 mm 1 mps 702 mmHg 71%
    23:00 +16°C° 0 mm 1 mps 702 mmHg 72%

    10 December, Tuesday

    Time Temperature Precipitation Wind Pressure Humidity
    00:00 +15°C° 0 mm 0 mps 701 mmHg 72%
    01:00 +15°C° 0 mm 0 mps 701 mmHg 73%
    02:00 +14°C° 0 mm 0 mps 701 mmHg 75%
    03:00 +14°C° 0 mm 0 mps 701 mmHg 77%
    04:00 +14°C° 0 mm 0 mps 700 mmHg 79%
    05:00 +16°C° 0 mm 1 mps 701 mmHg 73%
    06:00 +18°C° 0 mm 1 mps 701 mmHg 67%
    07:00 +20°C° 0 mm 1 mps 701 mmHg 60%
    08:00 +21°C° 0 mm 2 mps 702 mmHg 52%
    09:00 +24°C° 0 mm 2 mps 702 mmHg 43%
    10:00 +27°C° 0 mm 3 mps 702 mmHg 34%
    11:00 +28°C° 0 mm 4 mps 702 mmHg 31%
    12:00 +29°C° 0 mm 4 mps 702 mmHg 28%
    13:00 +32°C° 0 mm 5 mps 702 mmHg 25%
    14:00 +30°C° 0 mm 6 mps 701 mmHg 28%
    15:00 +29°C° 0 mm 7 mps 701 mmHg 32%
    16:00 +28°C° 0 mm 8 mps 701 mmHg 36%
    17:00 +24°C° 0 mm 7 mps 701 mmHg 41%
    18:00 +22°C° 0 mm 7 mps 701 mmHg 45%
    19:00 +19°C° 0 mm 6 mps 702 mmHg 50%
    20:00 +18°C° 0 mm 4 mps 702 mmHg 55%
    21:00 +17°C° 0 mm 3 mps 702 mmHg 61%
    22:00 +16°C° 0 mm 2 mps 702 mmHg 66%
    23:00 +16°C° 0 mm 1 mps 702 mmHg 65%

    11 December, Wednesday

    Time Temperature Precipitation Wind Pressure Humidity
    00:00 +16°C° 0 mm 1 mps 702 mmHg 65%
    01:00 +16°C° 0 mm 1 mps 701 mmHg 65%
    02:00 +15°C° 0 mm 1 mps 701 mmHg 65%
    03:00 +14°C° 0 mm 0 mps 701 mmHg 65%
    04:00 +14°C° 0 mm 0 mps 701 mmHg 65%
    05:00 +16°C° 0 mm 1 mps 701 mmHg 58%
    06:00 +19°C° 0 mm 1 mps 702 mmHg 52%
    07:00 +21°C° 0 mm 1 mps 702 mmHg 45%
    08:00 +23°C° 0 mm 2 mps 703 mmHg 38%
    09:00 +25°C° 0 mm 2 mps 703 mmHg 31%
    10:00 +27°C° 0 mm 3 mps 703 mmHg 25%
    11:00 +29°C° 0 mm 4 mps 703 mmHg 22%
    12:00 +30°C° 0 mm 4 mps 703 mmHg 20%
    13:00 +33°C° 0 mm 5 mps 702 mmHg 17%
    14:00 +32°C° 0 mm 6 mps 702 mmHg 20%
    15:00 +30°C° 0 mm 7 mps 702 mmHg 22%
    16:00 +29°C° 0 mm 8 mps 701 mmHg 24%
    17:00 +26°C° 0 mm 7 mps 702 mmHg 29%
    18:00 +23°C° 0 mm 6 mps 702 mmHg 34%
    19:00 +20°C° 0 mm 6 mps 702 mmHg 39%
    20:00 +19°C° 0 mm 4 mps 702 mmHg 44%
    21:00 +18°C° 0 mm 3 mps 702 mmHg 48%
    22:00 +18°C° 0 mm 1 mps 703 mmHg 53%
    23:00 +18°C° 0 mm 1 mps 702 mmHg 52%

    12 December, Thursday

    Time Temperature Precipitation Wind Pressure Humidity
    00:00 +16°C° 0 mm 1 mps 702 mmHg 52%
    01:00 +16°C° 0 mm 1 mps 701 mmHg 51%
    02:00 +16°C° 0 mm 1 mps 701 mmHg 51%
    03:00 +14°C° 0 mm 0 mps 701 mmHg 52%
    04:00 +14°C° 0 mm 0 mps 701 mmHg 52%
    05:00 +18°C° 0 mm 1 mps 701 mmHg 46%
    06:00 +20°C° 0 mm 1 mps 702 mmHg 40%
    07:00 +22°C° 0 mm 1 mps 702 mmHg 34%
    08:00 +24°C° 0 mm 2 mps 703 mmHg 29%
    09:00 +26°C° 0 mm 2 mps 703 mmHg 24%
    10:00 +29°C° 0 mm 3 mps 703 mmHg 19%
    11:00 +30°C° 0 mm 3 mps 703 mmHg 17%
    12:00 +33°C° 0 mm 4 mps 703 mmHg 15%
    13:00 +34°C° 0 mm 5 mps 702 mmHg 13%
    14:00 +34°C° 0 mm 6 mps 702 mmHg 16%
    15:00 +33°C° 0 mm 6 mps 702 mmHg 19%
    16:00 +32°C° 0 mm 7 mps 702 mmHg 22%
    17:00 +29°C° 0 mm 6 mps 702 mmHg 27%
    18:00 +26°C° 0 mm 5 mps 702 mmHg 32%
    19:00 +22°C° 0 mm 4 mps 702 mmHg 37%
    20:00 +21°C° 0 mm 3 mps 702 mmHg 42%
    21:00 +20°C° 0 mm 2 mps 702 mmHg 46%
    22:00 +20°C° 0 mm 1 mps 702 mmHg 50%
    23:00 +19°C° 0 mm 1 mps 702 mmHg 51%
    Show more